Ciro Casadei

Recruteur en chef - Vicenza
31 Oct 2027
Dimanche
Processus

Personnalité

Adaptabilité (5) Ambition (7) Controverse (1) Loyauté (10) Pression (4) Professionnalisme (1) Sportivité (17) Tempérament (1)

Profil

Style d'entraînement Démocratique
Diplôme Continental A
Détermination 10
Gestion des joueurs 6
Motivation 3
Discipline 3
Satisfaction professionnelle
100%
Fatigue
0%
Rôle Recruteur en chef
Salaire 22.5K p/s
Contrat 14.03.2029

Performance

Comportement Bon
Efficacité de l'entraînement
31%
Développement des joueurs
40%
Prévention des blessures
25%
Mise en place tactique
30%

Événements récents

A participé à une réunion de recrutement 56j

Suivi en cours

96
Joueur Club Statut Capacité Confiance Observé Dernière observation Dernier vote
Matteo Sorzi Carpi Actif 104 / 113 40% 5 07.08.2027 -
Roberto Ramírez Godoy Cruz Actif 125 / 111 40% 7 07.08.2027 -
Ruly Grimsby Town Actif 112 / 112 40% 1 07.08.2027 -
Matías Borgogno San Martín SJ Actif 124 / 126 40% 2 05.08.2027 -
Nahuel Galardi Maipú Actif 122 / 130 40% 1 05.08.2027 -
Matías Budiño Colón Actif 108 / 103 40% 1 05.08.2027 -
Niccolò Chiorra Casarano Actif 102 / 102 40% 6 04.08.2027 -
Matteo Rizzo Campobasso Actif 117 / 126 40% 1 04.08.2027 -
Andrea Zaccagno Torres Actif 113 / 128 40% 4 03.08.2027 -
Joan Femenías Penafiel Actif 119 / 108 40% 1 03.08.2027 -
Egoitz Arana Real Sociedad Actif 109 / 106 40% 1 03.08.2027 -
Frankarlos Benítez Caracas Actif 113 / 129 40% 3 31.07.2027 -
Luca Gemello Perugia Actif 116 / 119 40% 3 30.07.2027 -
Elia Boseggia Novara Actif 112 / 123 40% 2 30.07.2027 -
Beycker Velásquez Zamora Actif 103 / 123 40% 5 28.07.2027 -
Santiago Roggero Gimnasia y Esgrima Actif 116 / 107 40% 3 28.07.2027 -
Jerónimo Pourtau Estudiantes Actif 118 / 131 40% 1 28.07.2027 -
Davide Merelli Crotone Actif 104 / 117 40% 2 27.07.2027 -
Italo Espinoza San Martín Actif 104 / 97 40% 3 27.07.2027 -
Lorenzo Andrenacci Lumezzane Actif 109 / 119 40% 4 26.07.2027 -
Francisco Salerno Defensores Unidos Actif 109 / 123 40% 3 26.07.2027 -
Emiliano González BATE Actif 114 / 132 40% 2 26.07.2027 -
Tommaso Nobile Renate Actif 113 / 101 40% 5 25.07.2027 -
Alejandro Araque Deportivo Tachira Actif 112 / 120 40% 3 23.07.2027 -
Daniel Sappa San Miguel Actif 109 / 122 40% 3 21.07.2027 -
Federico Del Frate Virtus Entella Actif 111 / 118 40% 2 19.07.2027 -
Matías Tagliamonte Racing Club Actif 125 / 114 40% 1 19.07.2027 -
Gianluca Saro Foggia Actif 114 / 106 40% 4 18.07.2027 -
Cristopher Fiermarin Defensa y Justicia Actif 121 / 125 40% 1 18.07.2027 -
Sergio Barlocco Trento Actif 112 / 105 40% 3 17.07.2027 -
Marios Siabanis Volos NPS Actif 121 / 121 40% 1 16.07.2027 -
Álvaro Montero Boca Juniors Actif 128 / 141 40% 1 16.07.2027 -
Samuele Vitale Ascoli Actif 121 / 119 40% 3 15.07.2027 -
Facundo Vila Estudiantes Actif 101 / 97 40% 1 15.07.2027 -
Kristjan Matošević Triestina Actif 116 / 107 40% 7 10.07.2027 -
José Álvarez Arsenal Tula Actif 121 / 135 40% 1 10.07.2027 -
Lorenco Šimić Avellino Actif 120 / 121 40% 1 10.07.2027 -
Tomás Porra Barracas Central Actif 109 / 113 40% 1 10.07.2027 -
Leonardo Marson Gubbio Actif 104 / 98 40% 3 07.07.2027 -
Gady Beyuku Modena Actif 119 / 119 40% 1 05.07.2027 -
Simone Potop AlbinoLeffe Actif 100 / 94 40% 1 05.07.2027 -
Rio Shipston Sheffield Wednesday Actif 109 / 116 40% 1 05.07.2027 -
Sergey Volkov Rodina Actif 101 / 117 40% 2 04.07.2027 -
Lévi Ntumba Slavia Sofia Actif 102 / 103 40% 3 03.07.2027 -
Vitaly Gudiev Akron Actif 102 / 122 40% 2 03.07.2027 -
Rustam Yatimov Rostov Actif 129 / 116 40% 1 02.07.2027 -
Javier Bustillos Los Andes Actif 111 / 115 40% 1 29.06.2027 -
Daniele Sommariva Arzignano Actif 103 / 109 40% 1 29.06.2027 -
Ignacio Colombo Zabbar St. Patrick Actif 101 / 103 40% 3 28.06.2027 -
Elia Summa Picerno Actif 109 / 116 40% 2 23.06.2027 -
Emilio Di Fulvio Colegiales Actif 112 / 97 40% 2 23.06.2027 -
Nicolás Schiavi Carrarese Actif 124 / 118 40% 2 22.06.2027 -
Mimeirhel Benita Heracles Actif 119 / 127 40% 1 22.06.2027 -
Daniil Frolkin Fakel Actif 110 / 119 40% 2 21.06.2027 -
Mauro Casoli Giugliano Actif 111 / 112 40% 1 20.06.2027 -
Daniel Bachmann Watford Actif 126 / 111 40% 1 20.06.2027 -
Fabrizio Alastra Altamura Actif 109 / 117 40% 1 19.06.2027 -
Mathew Hudson Oldham Athletic Actif 96 / 105 40% 2 17.06.2027 -
Nikita Medvedev Nizhniy Novgorod Actif 115 / 97 40% 1 16.06.2027 -
Andrea Tiritiello Virtus Entella Actif 122 / 112 40% 3 15.06.2027 -
Sheikh Sibi Virtus Verona Actif 101 / 113 40% 2 15.06.2027 -
Luis Del Pino Mago Caracas Actif 128 / 115 40% 1 15.06.2027 -
Islam Imamov SKA Khabarovsk Actif 88 / 86 40% 1 15.06.2027 -
Alberto Spagnoli Union Brescia Actif 111 / 97 40% 1 14.06.2027 -
Luca Maiorano Ospitaletto Actif 106 / 93 40% 1 14.06.2027 -
Giuseppe Panico Foggia Actif 121 / 101 40% 1 14.06.2027 -
Giulio Frisenna Cittadella Perdu 89 / 96 72% 1 01.06.2027 Approuver
Yohann Magnin CSKA 1948 Actif 116 / 134 40% 2 31.01.2027 -
Thulani Erasmus Ajax Cape Town Actif 120 / 114 40% 2 31.01.2027 -
Ilja Tuseev Chelyabinsk Actif 93 / 112 40% 1 31.01.2027 -
Fernando Fonseca Leixões Actif 112 / 118 40% 1 31.01.2027 -
Ognjen Gašević CSKA 1948 Actif 125 / 98 40% 1 29.01.2027 -
Luca Vignali Virtus Entella Actif 123 / 108 40% 1 29.01.2027 -
Lorenzo Carissoni Padova Actif 127 / 117 40% 1 29.01.2027 -
Hakeem Odoffin Luton Town Actif 117 / 122 40% 2 28.01.2027 -
Kees de Boer Salernitana Actif 109 / 121 40% 1 28.01.2027 -
Andile Phiri Ajax Cape Town Actif 127 / 96 40% 1 28.01.2027 -
Bogdan Ovsyannikov Orenburg Actif 111 / 121 40% 1 26.01.2027 -
Victor De Lucia Casertana Actif 98 / 88 40% 1 24.01.2027 -
Mingiyan Beveev Baltika Actif 105 / 128 40% 1 24.01.2027 -
Maksym Kovaliov Spartak 1918 Actif 105 / 122 40% 1 22.01.2027 -
Arthur Beroe Actif 106 / 116 40% 2 21.01.2027 -
Erick Mothiba Black Aces Actif 96 / 85 40% 2 20.01.2027 -
Nazarii Fedorivskyi Obolon Actif 102 / 110 40% 1 19.01.2027 -
Miloš Brnović Arsenal Tula Actif 107 / 113 40% 1 19.01.2027 -
Peter Kováčik Podbrezova Actif 101 / 116 40% 1 19.01.2027 -
Itumeleng Khune Free State Stars Actif 91 / 94 40% 1 17.01.2027 -
Alessio Pozzi Vis Pesaro Actif 84 / 97 40% 1 17.01.2027 -
Mattia Maita Benevento Actif 117 / 119 40% 1 16.01.2027 -
Andrea Sergio Mazza Giana Erminio Actif 85 / 108 40% 1 14.01.2027 -
Mark Assinor Kryvbas Actif 120 / 94 40% 1 12.01.2027 -
Valerio Boffelli Cavese Actif 99 / 106 40% 1 12.01.2027 -
Roman Vantukh LNZ Actif 105 / 103 40% 1 10.01.2027 -
Ivan Kaliuzhnyi Metalist Actif 125 / 123 40% 1 08.01.2027 -
Lindon Emërllahu Polissia Actif 108 / 134 40% 1 08.01.2027 -
Guillermo Benítez Cerro Porteno Actif 127 / 123 40% 1 03.08.2026 -